Wind_Speed
45 48 50 51 52 51 53 54 56 60 62 63 62 63 62 63 63 61 61 61 60 59 59 57 56 56 55 55 53 54 55 55 52 54 49 45 41 43 46 36 37 38 41
53 54 55 55 57 55 55 57 59 61 65 66 67 69 71 73 72 71 71 70 69 68 67 65 61 60 56 54 54 55 56 59 57 56 49 45 44 46 42 40 38 43 39
58 62 68 64 60 63 65 67 69 71 71 71 71 73 77 77 77 78 77 77 76 75 74 71 68 63 62 58 54 55 57 58 58 61 60 50 49 48 47 46 45 42 40
75 73 77 72 68 64 64 65 66 68 69 71 71 73 76 78 79 81 82 80 79 78 78 74 70 62 59 60 59 57 60 60 60 57 64 62 55 53 51 51 49 43 43
79 80 81 77 74 68 66 65 64 66 68 70 71 74 75 77 79 82 85 84 85 86 85 81 75 71 64 62 63 65 63 62 61 61 61 67 62 56 57 53 49 45 43
83 86 82 78 70 66 63 61 60 61 62 65 68 74 79 83 87 90 92 92 92 91 90 87 83 78 72 67 64 62 67 66 67 60 64 59 65 61 57 57 51 48 44
89 88 78 69 64 60 58 58 60 63 66 70 76 81 86 91 93 94 94 93 91 90 85 82 79 75 72 67 64 59 66 67 71 71 60 62 63 64 60 55 57 51 48
92 77 70 64 60 60 61 64 67 72 76 80 84 88 89 88 87 81 79 75 69 68 69 67 65 67 65 62 58 58 63 65 71 73 65 65 64 60 56 59 56 54 49
81 71 66 64 64 66 68 72 76 78 82 85 89 87 84 76 72 68 64 64 60 53 52 53 54 55 57 54 51 55 59 63 68 75 74 68 63 62 59 60 58 58 58
73 70 69 70 71 73 76 80 85 87 88 85 85 80 70 63 63 59 54 52 46 42 41 40 43 44 44 46 50 55 58 66 66 71 73 73 68 61 60 60 62 59 61
73 74 76 79 80 82 87 91 93 91 87 82 71 66 59 54 52 49 47 40 34 34 33 33 34 36 39 43 46 51 58 62 62 66 70 70 70 66 61 59 64 59 59
77 81 85 88 90 93 94 93 90 87 81 69 62 57 52 46 44 40 35 29 26 26 24 26 31 31 34 39 45 49 56 57 60 63 67 68 67 66 60 61 61 64 62
84 87 91 93 95 93 90 88 87 80 66 57 50 45 43 35 33 29 20 22 18 20 22 25 21 24 29 36 42 47 50 52 55 59 61 65 66 66 58 55 59 62 65
89 93 93 92 91 89 88 85 77 63 52 43 35 30 28 23 19 15 14 15 17 20 17 15 19 21 25 31 36 42 44 49 52 55 59 64 64 63 60 57 54 56 61
90 89 90 89 88 86 83 74 63 50 38 28 18 16 13 11 10 10 12 12 13 14 14 11 12 17 25 20 22 30 40 45 49 54 57 60 61 61 64 60 58 57 61
89 89 88 87 84 79 71 62 53 38 25 17 11 11 4 3 6 10 16 20 18 11 12 11 11 15 12 18 20 31 32 41 45 50 54 58 59 60 63 63 63 59 65
89 90 89 84 77 67 60 52 42 28 18 17 17 13 11 9 5 15 17 15 13 18 17 17 20 23 16 17 18 21 29 34 42 47 51 54 55 55 61 62 60 60 62
92 89 83 74 66 59 51 45 36 24 19 24 20 22 18 15 18 22 19 17 19 22 18 23 24 18 15 13 12 8 12 23 31 38 44 49 51 53 56 58 57 57 58
87 80 73 67 59 50 44 40 33 24 22 33 25 28 20 25 30 27 25 22 25 25 22 24 20 16 19 17 21 16 14 12 16 24 35 42 45 50 54 59 59 58 57
77 72 68 58 51 44 38 34 31 29 28 37 34 36 32 32 31 33 29 28 31 29 26 26 25 22 27 26 27 25 23 25 20 22 16 34 43 48 52 57 57 58 59
72 67 58 51 45 41 37 33 29 31 34 37 42 42 40 37 33 38 34 29 34 33 35 29 34 29 35 39 32 26 29 30 32 30 32 38 40 47 51 55 56 57 58
65 58 54 50 47 40 35 33 30 29 39 41 45 48 47 42 40 43 39 36 38 37 41 39 39 36 45 46 38 33 35 36 37 39 38 33 35 44 46 52 57 58 57
57 54 51 48 45 43 36 33 32 32 41 46 49 51 55 53 51 48 44 45 42 42 45 46 44 47 48 51 49 44 43 46 42 38 38 39 40 44 49 50 57 58 59
51 49 48 45 43 40 36 34 32 33 37 50 52 53 56 61 59 57 54 53 45 47 47 50 52 52 51 57 57 57 57 54 50 52 49 51 53 54 50 51 43 54 60
48 46 45 43 41 37 36 32 31 34 35 48 57 60 59 60 61 59 56 54 54 48 52 52 54 54 61 60 64 64 66 66 63 63 61 54 60 61 55 62 59 59 56
43 43 43 43 38 30 29 25 24 28 36 39 48 61 63 60 61 63 62 61 58 55 51 56 58 62 62 67 66 72 70 70 71 70 67 68 68 68 65 63 62 61 69
Wind_Direction
318 318 310 304 301 296 289 283 280 278 275 274 273 267 268 267 267 265 263 264 264 264 264 264 262 261 258 256 254 254 254 251 250 253 244 238 239 241 245 251 243 242 246
313 317 311 305 298 294 292 288 284 283 280 277 275 271 271 272 272 270 269 267 264 263 263 263 262 263 261 260 252 249 249 250 248 249 246 234 225 233 239 244 242 239 239
318 316 316 309 300 293 290 287 282 281 280 279 278 274 274 275 274 273 271 270 268 267 266 264 261 258 258 259 258 251 246 246 246 243 245 237 226 227 232 242 245 247 243
316 313 315 309 305 299 293 289 284 281 281 280 279 278 277 276 275 275 275 274 273 272 271 270 267 261 254 253 255 255 244 240 241 240 240 241 231 232 232 243 247 250 249
316 314 312 309 307 302 296 292 288 286 284 283 282 281 280 281 281 280 279 279 278 278 277 276 274 272 267 261 259 257 251 235 235 238 238 238 239 236 228 240 247 246 243
314 313 310 308 304 299 295 292 289 288 286 285 283 283 283 283 282 281 280 279 277 276 275 275 274 272 269 264 259 257 248 242 228 230 237 234 237 236 232 237 242 245 239
313 312 309 305 302 299 295 292 289 287 287 288 287 289 288 288 286 283 281 278 276 275 273 271 269 268 266 264 261 253 245 240 230 226 227 233 234 235 232 234 238 242 243
313 308 305 303 301 297 295 294 294 294 293 292 294 295 294 293 291 287 283 280 278 272 270 267 264 262 260 256 252 246 239 234 225 224 222 229 231 232 229 230 233 236 242
308 305 304 302 303 301 299 298 299 297 298 298 299 299 298 297 292 289 285 282 278 276 269 265 259 255 253 249 242 237 234 229 226 221 221 223 226 226 223 227 230 232 241
304 304 306 305 302 301 301 301 302 303 304 304 303 300 299 295 291 287 283 280 279 272 265 260 257 252 248 241 232 230 227 227 225 220 220 223 225 224 224 220 228 234 238
302 303 303 302 303 304 304 305 305 305 307 306 303 300 298 292 286 284 281 281 275 268 263 256 248 241 239 234 229 226 226 226 224 221 220 221 225 225 227 221 225 227 234
303 303 304 305 305 305 305 304 305 306 306 303 299 298 292 288 281 279 280 278 270 265 259 249 240 234 231 229 226 224 224 225 225 222 219 220 222 222 223 224 222 222 229
302 302 302 303 303 304 303 304 304 306 305 299 298 293 292 289 285 278 271 270 269 265 254 250 244 232 228 227 226 225 222 223 225 223 220 220 222 222 219 219 223 222 224
301 302 303 303 303 303 302 304 305 305 301 296 298 299 302 294 279 270 270 270 257 242 253 244 233 226 224 227 228 229 223 222 224 223 221 222 222 223 220 217 218 218 220
302 302 303 303 302 302 304 304 302 303 295 293 295 307 305 290 272 260 258 256 237 243 227 220 224 227 223 227 234 229 221 222 219 220 222 224 224 221 222 219 214 212 215
302 303 303 303 304 304 303 301 300 295 285 266 266 271 253 300 247 238 218 226 235 231 190 184 185 224 197 189 214 232 227 221 220 219 219 221 222 221 221 222 218 214 214
304 305 305 305 305 303 301 298 294 279 253 232 239 199 196 182 252 262 244 235 215 185 186 205 208 192 183 227 231 237 229 222 218 218 218 219 222 221 223 224 226 224 219
305 305 305 305 304 303 298 293 284 257 223 215 226 187 208 218 238 229 242 234 206 198 195 218 217 210 214 204 198 191 222 226 221 219 216 218 219 221 223 224 225 225 227
305 305 305 305 303 300 295 289 276 241 216 214 209 188 221 227 243 231 225 228 215 203 207 217 212 196 190 171 157 162 138 147 202 206 217 215 219 223 223 224 226 225 226
304 304 305 304 302 298 292 284 272 236 214 211 210 201 217 225 237 244 236 238 222 215 202 209 199 187 195 176 168 162 153 147 163 165 200 229 220 221 224 226 227 228 228
304 305 304 301 299 296 289 280 264 240 212 210 211 210 213 224 235 246 243 233 225 217 210 201 200 189 184 178 182 175 170 178 189 188 203 219 229 227 228 228 229 231 231
306 305 303 301 299 294 284 277 263 245 218 209 213 215 215 221 231 240 241 240 222 220 217 211 206 200 189 191 195 201 190 191 198 208 213 227 234 240 229 230 231 232 232
304 303 300 298 295 292 285 272 260 245 221 214 211 216 220 222 226 226 239 236 227 222 220 217 209 204 203 201 201 205 198 195 198 205 207 218 224 215 240 236 234 233 234
304 304 303 301 297 290 283 271 256 243 229 217 216 214 224 226 228 230 233 243 230 227 225 222 217 211 211 208 210 207 207 204 204 205 207 212 211 222 235 241 237 240 235
304 306 306 305 302 296 283 271 256 241 232 221 217 218 222 229 230 232 235 238 241 231 227 224 223 217 214 212 213 212 213 213 215 214 218 218 224 226 237 237 234 228 234
308 311 313 311 310 301 285 274 255 239 232 230 221 222 222 230 234 235 235 237 242 244 234 230 227 224 219 216 216 218 220 219 222 222 223 227 227 230 231 233 234 239 236
Height
10898 10893 10888 10883 10878 10875 10870 10867 10864 10860 10857 10856 10855 10854 10851 10849 10848 10848 10847 10846 10846 10844 10844 10845 10845 10846 10848 10850 10853 10857 10859 10864 10869 10869 10882 10893 10897 10890 10891 10892 10897 10899 10911
10887 10884 10879 10873 10867 10862 10856 10851 10846 10843 10839 10837 10836 10834 10830 10827 10827 10826 10825 10825 10827 10826 10825 10826 10828 10828 10832 10833 10835 10839 10845 10848 10855 10856 10864 10876 10885 10886 10883 10883 10888 10897 10900
10872 10868 10863 10858 10853 10846 10839 10834 10828 10823 10819 10816 10814 10811 10808 10806 10803 10801 10800 10800 10800 10802 10803 10805 10808 10810 10812 10813 10817 10822 10826 10832 10838 10843 10847 10857 10867 10875 10879 10879 10881 10886 10888
10856 10849 10843 10838 10833 10827 10821 10815 10809 10804 10799 10795 10792 10789 10785 10781 10779 10777 10773 10774 10775 10777 10777 10780 10784 10788 10791 10792 10796 10801 10806 10813 10819 10827 10831 10837 10849 10856 10863 10863 10866 10871 10876
10840 10832 10825 10817 10811 10805 10799 10794 10790 10785 10780 10776 10772 10766 10762 10758 10755 10750 10747 10748 10747 10746 10745 10748 10754 10759 10764 10769 10775 10778 10784 10792 10800 10807 10813 10820 10829 10839 10846 10849 10853 10858 10863
10823 10815 10807 10800 10792 10786 10781 10776 10772 10767 10763 10758 10752 10746 10741 10735 10730 10722 10718 10720 10717 10716 10716 10717 10721 10726 10732 10740 10746 10754 10761 10770 10777 10788 10794 10805 10811 10820 10830 10836 10841 10845 10850
10808 10798 10789 10782 10776 10770 10764 10760 10755 10750 10746 10739 10731 10724 10717 10706 10698 10689 10684 10683 10684 10682 10684 10687 10691 10697 10702 10710 10718 10728 10736 10745 10757 10766 10776 10785 10791 10800 10813 10823 10829 10834 10838
10792 10782 10774 10767 10761 10755 10749 10743 10738 10732 10724 10715 10707 10696 10687 10674 10662 10656 10648 10648 10650 10650 10652 10656 10662 10667 10674 10683 10693 10702 10709 10719 10731 10745 10759 10762 10774 10784 10798 10806 10815 10823 10829
10776 10767 10758 10751 10744 10739 10733 10725 10718 10710 10702 10692 10680 10667 10656 10645 10633 10629 10626 10620 10621 10626 10628 10632 10638 10644 10649 10660 10672 10680 10689 10699 10710 10722 10735 10745 10758 10768 10779 10790 10802 10808 10813
10758 10749 10742 10737 10729 10722 10713 10705 10695 10685 10675 10664 10653 10640 10632 10625 10613 10609 10607 10605 10607 10610 10613 10617 10621 10627 10634 10642 10652 10659 10670 10674 10691 10705 10719 10729 10741 10755 10765 10776 10783 10796 10800
10740 10733 10725 10716 10710 10701 10691 10681 10671 10661 10650 10640 10629 10619 10611 10606 10598 10595 10592 10596 10597 10598 10601 10605 10608 10612 10618 10627 10637 10646 10652 10662 10678 10692 10702 10714 10726 10740 10751 10762 10769 10779 10787
10720 10713 10705 10696 10687 10678 10668 10658 10648 10639 10630 10618 10612 10604 10595 10591 10584 10582 10583 10586 10588 10589 10593 10594 10597 10602 10608 10615 10623 10632 10639 10653 10666 10678 10688 10699 10709 10722 10733 10744 10755 10766 10775
10703 10695 10687 10677 10666 10656 10646 10636 10628 10618 10611 10602 10597 10591 10583 10580 10576 10574 10577 10579 10581 10583 10586 10588 10593 10599 10603 10608 10614 10622 10633 10644 10654 10666 10675 10685 10694 10704 10717 10730 10742 10751 10761
10684 10674 10665 10655 10645 10634 10624 10615 10606 10601 10595 10589 10585 10580 10575 10572 10570 10571 10573 10575 10577 10578 10582 10585 10589 10593 10597 10601 10607 10616 10626 10633 10641 10652 10662 10670 10681 10695 10706 10717 10727 10735 10746
10663 10653 10643 10634 10623 10613 10602 10594 10589 10586 10583 10578 10576 10573 10572 10570 10569 10569 10570 10572 10575 10577 10579 10582 10585 10589 10591 10597 10602 10605 10613 10621 10629 10639 10649 10660 10670 10681 10693 10703 10712 10721 10732
10641 10632 10620 10611 10602 10592 10584 10576 10573 10573 10571 10571 10569 10569 10569 10569 10568 10568 10570 10569 10572 10577 10579 10581 10583 10585 10588 10594 10596 10599 10605 10612 10620 10629 10638 10647 10658 10669 10679 10690 10699 10708 10716
10618 10608 10596 10588 10580 10573 10565 10560 10560 10560 10560 10562 10562 10564 10565 10565 10569 10566 10566 10569 10570 10573 10577 10579 10579 10581 10586 10588 10592 10595 10599 10605 10611 10619 10629 10640 10650 10660 10669 10677 10687 10696 10704
10594 10584 10574 10567 10559 10554 10548 10544 10544 10546 10549 10553 10555 10558 10561 10561 10561 10563 10564 10566 10566 10568 10573 10575 10577 10580 10585 10588 10590 10593 10597 10601 10608 10616 10624 10632 10640 10650 10658 10667 10676 10683 10691
10571 10562 10554 10547 10541 10536 10532 10529 10531 10532 10537 10542 10546 10550 10554 10556 10554 10556 10558 10559 10561 10565 10568 10570 10575 10579 10583 10586 10588 10591 10595 10600 10604 10611 10615 10623 10633 10640 10647 10654 10662 10671 10678
10551 10543 10535 10529 10523 10520 10518 10516 10518 10520 10525 10531 10536 10540 10543 10546 10547 10548 10551 10553 10556 10559 10564 10566 10570 10574 10579 10583 10586 10589 10592 10596 10603 10606 10612 10615 10622 10629 10636 10641 10650 10659 10665
10530 10524 10517 10512 10509 10506 10504 10504 10505 10509 10511 10518 10524 10529 10532 10537 10539 10538 10541 10544 10548 10552 10556 10559 10564 10567 10572 10577 10580 10584 10588 10593 10597 10601 10605 10608 10611 10617 10625 10631 10636 10644 10651
10513 10506 10500 10496 10493 10492 10492 10490 10492 10495 10498 10504 10511 10516 10520 10524 10528 10530 10532 10534 10538 10543 10548 10552 10557 10561 10565 10570 10573 10576 10582 10586 10591 10595 10597 10601 10605 10605 10613 10618 10623 10628 10637
10499 10492 10485 10481 10478 10476 10476 10477 10478 10480 10485 10490 10497 10502 10506 10510 10513 10517 10519 10522 10527 10532 10537 10543 10547 10551 10555 10558 10564 10570 10572 10577 10583 10586 10590 10594 10596 10599 10599 10607 10611 10616 10622
10485 10478 10472 10467 10463 10461 10460 10460 10462 10466 10471 10476 10483 10488 10492 10495 10500 10504 10508 10508 10515 10520 10524 10529 10537 10542 10544 10548 10552 10556 10561 10564 10568 10573 10578 10582 10586 10590 10587 10592 10598 10602 10608
10473 10467 10460 10454 10449 10446 10443 10444 10446 10450 10456 10462 10467 10475 10478 10482 10488 10492 10496 10498 10500 10506 10512 10516 10521 10526 10532 10535 10538 10542 10547 10553 10556 10558 10562 10566 10571 10572 10572 10577 10583 10589 10592
10463 10457 10450 10442 10437 10432 10429 10430 10433 10438 10442 10447 10457 10461 10467 10471 10474 10478 10482 10485 10487 10491 10498 10504 10508 10513 10517 10521 10523 10528 10531 10535 10539 10543 10547 10549 10552 10554 10558 10560 10564 10569 10572